Time,TemperatureF,DewpointF,PressureIn,WindDirection,WindDirectionDegrees,WindSpeedMPH,WindSpeedGustMPH,Humidity,HourlyPrecipIn,Conditions,Clouds,dailyrainin,SolarRadiationWatts/m^2,SoftwareType,DateUTC
2013-10-25 00:21:00,49.0,24.0,-100.00,SE,130,0.0,3.0,37,-99.99,,,0.00,0.000000,,2013-10-25 06:21:00,
2013-10-25 00:31:00,49.0,24.0,-100.00,SE,130,0.0,3.0,37,-99.99,,,0.00,0.000000,,2013-10-25 06:31:00,
2013-10-25 00:51:00,49.0,24.0,-100.00,SE,130,0.0,3.0,37,-99.99,,,0.00,0.000000,,2013-10-25 06:51:00,
2013-10-25 01:21:00,46.0,22.0,-100.00,ESE,112,0.0,2.0,39,0.00,,,0.00,0.000000,,2013-10-25 07:21:00,
2013-10-25 01:31:00,46.0,22.0,-100.00,ESE,112,0.0,2.0,39,0.00,,,0.00,0.000000,,2013-10-25 07:31:00,
2013-10-25 02:21:00,46.0,24.0,-100.00,ESE,120,0.0,0.0,41,-99.99,,,0.00,0.000000,,2013-10-25 08:21:00,
2013-10-25 02:31:00,46.0,24.0,-100.00,ESE,120,0.0,0.0,41,-99.99,,,0.00,0.000000,,2013-10-25 08:31:00,
2013-10-25 03:21:00,47.0,25.0,-100.00,ESE,120,1.0,2.0,42,-99.99,,,0.00,0.000000,,2013-10-25 09:21:00,
2013-10-25 03:32:00,47.0,25.0,-100.00,ESE,120,1.0,2.0,42,-99.99,,,0.00,0.000000,,2013-10-25 09:32:00,
2013-10-25 04:22:00,44.0,24.0,-100.00,ESE,102,0.0,4.0,45,-99.99,,,0.00,0.000000,,2013-10-25 10:22:00,
2013-10-25 04:32:00,44.0,24.0,-100.00,ESE,102,0.0,4.0,45,-99.99,,,0.00,0.000000,,2013-10-25 10:32:00,
2013-10-25 04:41:00,44.0,24.0,-100.00,ESE,102,0.0,4.0,45,-99.99,,,0.00,0.000000,,2013-10-25 10:41:00,
2013-10-25 04:51:00,44.0,24.0,-100.00,ESE,102,0.0,4.0,45,-99.99,,,0.00,0.000000,,2013-10-25 10:51:00,
2013-10-25 05:41:00,45.0,25.0,-100.00,WNW,296,0.0,3.0,46,-99.99,,,0.00,0.000000,,2013-10-25 11:41:00,
2013-10-25 06:21:00,44.0,23.0,-100.00,ESE,112,0.0,4.0,44,-99.99,,,0.00,0.000000,,2013-10-25 12:21:00,
2013-10-25 06:31:00,44.0,23.0,-100.00,ESE,112,0.0,4.0,44,-99.99,,,0.00,0.000000,,2013-10-25 12:31:00,
2013-10-25 06:41:00,44.0,23.0,-100.00,ESE,112,0.0,4.0,44,-99.99,,,0.00,0.000000,,2013-10-25 12:41:00,
2013-10-25 07:21:00,43.0,25.0,-100.00,SE,132,0.0,4.0,48,-99.99,,,0.00,0.000000,,2013-10-25 13:21:00,
2013-10-25 07:32:00,43.0,25.0,-100.00,SE,132,0.0,4.0,48,-99.99,,,0.00,0.000000,,2013-10-25 13:32:00,
2013-10-25 08:22:00,41.0,24.0,-100.00,North,356,0.0,0.0,50,-99.99,,,0.00,0.000000,,2013-10-25 14:22:00,
2013-10-25 08:32:00,41.0,24.0,-100.00,North,356,0.0,0.0,50,-99.99,,,0.00,0.000000,,2013-10-25 14:32:00,
2013-10-25 08:42:00,41.0,24.0,-100.00,North,356,0.0,0.0,50,-99.99,,,0.00,0.000000,,2013-10-25 14:42:00,
2013-10-25 08:52:00,41.0,24.0,-100.00,North,356,0.0,0.0,50,-99.99,,,0.00,0.000000,,2013-10-25 14:52:00,
2013-10-25 10:43:00,46.0,27.0,-100.00,South,175,0.0,3.0,48,-99.99,,,0.00,151.000000,,2013-10-25 16:43:00,
2013-10-25 10:53:00,46.0,27.0,-100.00,South,175,0.0,3.0,48,-99.99,,,0.00,151.000000,,2013-10-25 16:53:00,
2013-10-25 11:22:00,49.0,27.0,-100.00,SW,216,0.0,3.0,42,0.00,,,0.00,431.000000,,2013-10-25 17:22:00,
2013-10-25 11:33:00,49.0,27.0,-100.00,SW,216,0.0,3.0,42,0.00,,,0.00,431.000000,,2013-10-25 17:33:00,
2013-10-25 11:52:00,49.0,27.0,-100.00,SW,216,0.0,3.0,42,0.00,,,0.00,431.000000,,2013-10-25 17:52:00,
2013-10-25 12:21:00,49.0,28.0,-100.00,SW,232,0.0,4.0,44,0.00,,,0.00,349.000000,,2013-10-25 18:21:00,
2013-10-25 12:32:00,49.0,28.0,-100.00,SW,232,0.0,4.0,44,0.00,,,0.00,349.000000,,2013-10-25 18:32:00,
2013-10-25 12:42:00,49.0,28.0,-100.00,SW,232,0.0,4.0,44,0.00,,,0.00,349.000000,,2013-10-25 18:42:00,
2013-10-25 12:52:00,49.0,28.0,-100.00,SW,232,0.0,4.0,44,0.00,,,0.00,349.000000,,2013-10-25 18:52:00,
2013-10-25 13:22:00,55.0,28.0,-100.00,West,270,0.0,4.0,35,0.00,,,0.00,624.000000,,2013-10-25 19:22:00,
2013-10-25 13:32:00,55.0,28.0,-100.00,West,270,0.0,4.0,35,0.00,,,0.00,624.000000,,2013-10-25 19:32:00,
2013-10-25 13:42:00,55.0,28.0,-100.00,West,270,0.0,4.0,35,0.00,,,0.00,624.000000,,2013-10-25 19:42:00,
2013-10-25 13:52:00,55.0,28.0,-100.00,West,270,0.0,4.0,35,0.00,,,0.00,624.000000,,2013-10-25 19:52:00,
2013-10-25 14:22:00,60.0,30.0,-100.00,WNW,294,0.0,6.0,32,0.00,,,0.00,787.000000,,2013-10-25 20:22:00,
2013-10-25 14:32:00,60.0,30.0,-100.00,WNW,294,0.0,6.0,32,0.00,,,0.00,787.000000,,2013-10-25 20:32:00,
2013-10-25 14:42:00,60.0,30.0,-100.00,WNW,294,0.0,6.0,32,0.00,,,0.00,787.000000,,2013-10-25 20:42:00,
2013-10-25 14:52:00,60.0,30.0,-100.00,WNW,294,0.0,6.0,32,0.00,,,0.00,787.000000,,2013-10-25 20:52:00,
2013-10-25 15:21:00,60.0,29.0,-100.00,WNW,284,1.0,5.0,31,0.00,,,0.00,750.000000,,2013-10-25 21:21:00,
2013-10-25 15:33:00,60.0,29.0,-100.00,WNW,284,1.0,5.0,31,0.00,,,0.00,750.000000,,2013-10-25 21:33:00,
2013-10-25 15:43:00,60.0,29.0,-100.00,WNW,284,1.0,5.0,31,0.00,,,0.00,750.000000,,2013-10-25 21:43:00,
2013-10-25 15:54:00,60.0,29.0,-100.00,WNW,284,1.0,5.0,31,0.00,,,0.00,750.000000,,2013-10-25 21:54:00,
2013-10-25 16:23:00,62.0,32.0,-100.00,West,266,1.0,4.0,32,0.00,,,0.00,636.000000,,2013-10-25 22:23:00,
2013-10-25 16:34:00,62.0,32.0,-100.00,West,266,1.0,4.0,32,0.00,,,0.00,636.000000,,2013-10-25 22:34:00,
2013-10-25 16:42:00,62.0,32.0,-100.00,West,266,1.0,4.0,32,0.00,,,0.00,636.000000,,2013-10-25 22:42:00,
2013-10-25 16:52:00,62.0,32.0,-100.00,West,266,1.0,4.0,32,0.00,,,0.00,636.000000,,2013-10-25 22:52:00,
2013-10-25 17:22:00,57.0,31.0,-100.00,WSW,254,0.0,5.0,37,0.00,,,0.00,345.000000,,2013-10-25 23:22:00,
2013-10-25 17:34:00,57.0,31.0,-100.00,WSW,254,0.0,5.0,37,0.00,,,0.00,345.000000,,2013-10-25 23:34:00,
2013-10-25 17:42:00,57.0,31.0,-100.00,WSW,254,0.0,5.0,37,0.00,,,0.00,345.000000,,2013-10-25 23:42:00,
2013-10-25 17:52:00,57.0,31.0,-100.00,WSW,254,0.0,5.0,37,0.00,,,0.00,345.000000,,2013-10-25 23:52:00,
2013-10-25 18:22:00,55.0,32.0,-100.00,WSW,254,0.0,5.0,41,0.00,,,0.00,52.000000,,2013-10-26 00:22:00,
2013-10-25 18:32:00,55.0,32.0,-100.00,WSW,254,0.0,5.0,41,0.00,,,0.00,52.000000,,2013-10-26 00:32:00,
2013-10-25 18:42:00,55.0,32.0,-100.00,WSW,254,0.0,5.0,41,0.00,,,0.00,52.000000,,2013-10-26 00:42:00,
2013-10-25 18:52:00,55.0,32.0,-100.00,WSW,254,0.0,5.0,41,0.00,,,0.00,52.000000,,2013-10-26 00:52:00,
2013-10-25 19:21:00,51.0,30.0,-100.00,ENE,74,0.0,4.0,45,0.00,,,0.00,10.000000,,2013-10-26 01:21:00,
2013-10-25 19:32:00,51.0,30.0,-100.00,ENE,74,0.0,4.0,45,0.00,,,0.00,10.000000,,2013-10-26 01:32:00,
2013-10-25 19:42:00,51.0,30.0,-100.00,ENE,74,0.0,4.0,45,0.00,,,0.00,10.000000,,2013-10-26 01:42:00,
2013-10-25 19:52:00,51.0,30.0,-100.00,ENE,74,0.0,4.0,45,0.00,,,0.00,10.000000,,2013-10-26 01:52:00,
2013-10-25 20:22:00,50.0,29.0,-100.00,ENE,71,0.0,0.0,45,0.00,,,0.00,0.000000,,2013-10-26 02:22:00,
2013-10-25 20:32:00,50.0,29.0,-100.00,ENE,71,0.0,0.0,45,0.00,,,0.00,0.000000,,2013-10-26 02:32:00,
2013-10-25 20:42:00,50.0,29.0,-100.00,ENE,71,0.0,0.0,45,0.00,,,0.00,0.000000,,2013-10-26 02:42:00,
2013-10-25 20:52:00,50.0,29.0,-100.00,ENE,71,0.0,0.0,45,0.00,,,0.00,0.000000,,2013-10-26 02:52:00,
2013-10-25 21:22:00,50.0,27.0,-100.00,ESE,123,0.0,0.0,41,0.00,,,0.00,0.000000,,2013-10-26 03:22:00,
2013-10-25 21:35:00,50.0,27.0,-100.00,ESE,123,0.0,0.0,41,0.00,,,0.00,0.000000,,2013-10-26 03:35:00,
2013-10-25 21:44:00,50.0,27.0,-100.00,ESE,123,0.0,0.0,41,0.00,,,0.00,0.000000,,2013-10-26 03:44:00,
2013-10-25 21:54:00,50.0,27.0,-100.00,ESE,123,0.0,0.0,41,0.00,,,0.00,0.000000,,2013-10-26 03:54:00,
2013-10-25 22:24:00,49.0,27.0,-100.00,North,350,0.0,0.0,42,-99.99,,,0.00,0.000000,,2013-10-26 04:24:00,
2013-10-25 22:33:00,49.0,27.0,-100.00,North,350,0.0,0.0,42,-99.99,,,0.00,0.000000,,2013-10-26 04:33:00,
2013-10-25 22:54:00,49.0,27.0,-100.00,North,350,0.0,0.0,42,-99.99,,,0.00,0.000000,,2013-10-26 04:54:00,
2013-10-25 23:23:00,46.0,25.0,-100.00,NNW,339,0.0,0.0,44,-99.99,,,0.00,0.000000,,2013-10-26 05:23:00,
2013-10-25 23:34:00,46.0,25.0,-100.00,NNW,339,0.0,0.0,44,-99.99,,,0.00,0.000000,,2013-10-26 05:34:00,
2013-10-25 23:43:00,46.0,25.0,-100.00,NNW,339,0.0,0.0,44,-99.99,,,0.00,0.000000,,2013-10-26 05:43:00,
2013-10-25 23:52:00,46.0,25.0,-100.00,NNW,339,0.0,0.0,44,-99.99,,,0.00,0.000000,,2013-10-26 05:52:00,